Location: Austin
(30.3000°N, 97.7500°W)
Time: 00:47:37
(UTC-05:00)

IUS-17 SRM-1 - Pass Details

Date: 06 May 2026
Orbit: 298 x 27212 km, 28.2° (Epoch: 13 May)

Event Time Altitude Azimuth Distance (km) Brightness Sun altitude
Rises 21:48:26 0° 269° (W) 12,214 10.5 -19.3°
Reaches altitude 10° 22:02:39 10° 270° (W) 7,187 9.2 -21.8°
Maximum altitude 22:17:28 73° 188° (S) 957 3.8 -24.3°
Enters shadow 22:18:06 64° 136° (SE) 916 3.5 -24.4°
